Index of /20260411/WXO-DD/model_gdps/15km/12/240
Name Last modified Size Description
Parent Directory -
20260411T12Z_MSC_GDPS_AbsoluteVorticity_IsbL-0200_LatLon0.15_PT240H.grib2 2026-04-11 17:03 1.5M
20260411T12Z_MSC_GDPS_AbsoluteVorticity_IsbL-0250_LatLon0.15_PT240H.grib2 2026-04-11 17:03 1.3M
20260411T12Z_MSC_GDPS_AbsoluteVorticity_IsbL-0500_LatLon0.15_PT240H.grib2 2026-04-11 17:03 1.4M
20260411T12Z_MSC_GDPS_AbsoluteVorticity_IsbL-0700_LatLon0.15_PT240H.grib2 2026-04-11 17:03 1.3M
20260411T12Z_MSC_GDPS_AbsoluteVorticity_IsbL-0850_LatLon0.15_PT240H.grib2 2026-04-11 17:03 1.6M
20260411T12Z_MSC_GDPS_AirTemp-Max_AGL-2m_LatLon0.15_PT240H.grib2 2026-04-11 17:03 743K
20260411T12Z_MSC_GDPS_AirTemp-Min_AGL-2m_LatLon0.15_PT240H.grib2 2026-04-11 17:03 787K
20260411T12Z_MSC_GDPS_AirTemp_AGL-120m_LatLon0.15_PT240H.grib2 2026-04-11 17:03 906K
20260411T12Z_MSC_GDPS_AirTemp_AGL-2m_LatLon0.15_PT240H.grib2 2026-04-11 17:03 1.0M
20260411T12Z_MSC_GDPS_AirTemp_AGL-40m_LatLon0.15_PT240H.grib2 2026-04-11 17:03 808K
20260411T12Z_MSC_GDPS_AirTemp_AGL-80m_LatLon0.15_PT240H.grib2 2026-04-11 17:03 915K
20260411T12Z_MSC_GDPS_AirTemp_IsbL-0001_LatLon0.15_PT240H.grib2 2026-04-11 17:03 637K
20260411T12Z_MSC_GDPS_AirTemp_IsbL-0005_LatLon0.15_PT240H.grib2 2026-04-11 17:03 743K
20260411T12Z_MSC_GDPS_AirTemp_IsbL-0010_LatLon0.15_PT240H.grib2 2026-04-11 17:03 751K
20260411T12Z_MSC_GDPS_AirTemp_IsbL-0020_LatLon0.15_PT240H.grib2 2026-04-11 17:03 698K
20260411T12Z_MSC_GDPS_AirTemp_IsbL-0030_LatLon0.15_PT240H.grib2 2026-04-11 17:03 754K
20260411T12Z_MSC_GDPS_AirTemp_IsbL-0050_LatLon0.15_PT240H.grib2 2026-04-11 17:03 809K
20260411T12Z_MSC_GDPS_AirTemp_IsbL-0100_LatLon0.15_PT240H.grib2 2026-04-11 17:03 1.0M
20260411T12Z_MSC_GDPS_AirTemp_IsbL-0150_LatLon0.15_PT240H.grib2 2026-04-11 17:03 972K
20260411T12Z_MSC_GDPS_AirTemp_IsbL-0175_LatLon0.15_PT240H.grib2 2026-04-11 17:03 961K
20260411T12Z_MSC_GDPS_AirTemp_IsbL-0200_LatLon0.15_PT240H.grib2 2026-04-11 17:03 969K
20260411T12Z_MSC_GDPS_AirTemp_IsbL-0225_LatLon0.15_PT240H.grib2 2026-04-11 17:03 970K
20260411T12Z_MSC_GDPS_AirTemp_IsbL-0250_LatLon0.15_PT240H.grib2 2026-04-11 17:03 1.0M
20260411T12Z_MSC_GDPS_AirTemp_IsbL-0275_LatLon0.15_PT240H.grib2 2026-04-11 17:03 1.0M
20260411T12Z_MSC_GDPS_AirTemp_IsbL-0300_LatLon0.15_PT240H.grib2 2026-04-11 17:03 1.0M
20260411T12Z_MSC_GDPS_AirTemp_IsbL-0350_LatLon0.15_PT240H.grib2 2026-04-11 17:03 934K
20260411T12Z_MSC_GDPS_AirTemp_IsbL-0400_LatLon0.15_PT240H.grib2 2026-04-11 17:03 946K
20260411T12Z_MSC_GDPS_AirTemp_IsbL-0450_LatLon0.15_PT240H.grib2 2026-04-11 17:03 967K
20260411T12Z_MSC_GDPS_AirTemp_IsbL-0500_LatLon0.15_PT240H.grib2 2026-04-11 17:03 1.0M
20260411T12Z_MSC_GDPS_AirTemp_IsbL-0550_LatLon0.15_PT240H.grib2 2026-04-11 17:03 1.0M
20260411T12Z_MSC_GDPS_AirTemp_IsbL-0600_LatLon0.15_PT240H.grib2 2026-04-11 17:03 900K
20260411T12Z_MSC_GDPS_AirTemp_IsbL-0650_LatLon0.15_PT240H.grib2 2026-04-11 17:03 925K
20260411T12Z_MSC_GDPS_AirTemp_IsbL-0700_LatLon0.15_PT240H.grib2 2026-04-11 17:03 960K
20260411T12Z_MSC_GDPS_AirTemp_IsbL-0750_LatLon0.15_PT240H.grib2 2026-04-11 17:03 1.0M
20260411T12Z_MSC_GDPS_AirTemp_IsbL-0800_LatLon0.15_PT240H.grib2 2026-04-11 17:03 1.1M
20260411T12Z_MSC_GDPS_AirTemp_IsbL-0850_LatLon0.15_PT240H.grib2 2026-04-11 17:03 1.1M
20260411T12Z_MSC_GDPS_AirTemp_IsbL-0875_LatLon0.15_PT240H.grib2 2026-04-11 17:03 1.2M
20260411T12Z_MSC_GDPS_AirTemp_IsbL-0900_LatLon0.15_PT240H.grib2 2026-04-11 17:03 1.1M
20260411T12Z_MSC_GDPS_AirTemp_IsbL-0925_LatLon0.15_PT240H.grib2 2026-04-11 17:03 1.1M
20260411T12Z_MSC_GDPS_AirTemp_IsbL-0950_LatLon0.15_PT240H.grib2 2026-04-11 17:03 1.1M
20260411T12Z_MSC_GDPS_AirTemp_IsbL-0970_LatLon0.15_PT240H.grib2 2026-04-11 17:03 1.1M
20260411T12Z_MSC_GDPS_AirTemp_IsbL-0985_LatLon0.15_PT240H.grib2 2026-04-11 17:03 1.1M
20260411T12Z_MSC_GDPS_AirTemp_IsbL-1000_LatLon0.15_PT240H.grib2 2026-04-11 17:03 1.1M
20260411T12Z_MSC_GDPS_AirTemp_IsbL-1015_LatLon0.15_PT240H.grib2 2026-04-11 17:03 1.1M
20260411T12Z_MSC_GDPS_Albedo_Sfc_LatLon0.15_PT240H.grib2 2026-04-11 17:03 244K
20260411T12Z_MSC_GDPS_CAPE_Sfc_LatLon0.15_PT240H.grib2 2026-04-11 17:03 3.7M
20260411T12Z_MSC_GDPS_CIN_Sfc_LatLon0.15_PT240H.grib2 2026-04-11 17:03 2.8M
20260411T12Z_MSC_GDPS_CloudWater_EAtm_LatLon0.15_PT240H.grib2 2026-04-11 17:03 532K
20260411T12Z_MSC_GDPS_ConvectivePrecip-Accum_Sfc_LatLon0.15_PT240H.grib2 2026-04-11 17:03 3.7M
20260411T12Z_MSC_GDPS_DewPointDepression_AGL-2m_LatLon0.15_PT240H.grib2 2026-04-11 17:03 744K
20260411T12Z_MSC_GDPS_DewPointDepression_IsbL-0010_LatLon0.15_PT240H.grib2 2026-04-11 17:03 4.9K
20260411T12Z_MSC_GDPS_DewPointDepression_IsbL-0020_LatLon0.15_PT240H.grib2 2026-04-11 17:03 57K
20260411T12Z_MSC_GDPS_DewPointDepression_IsbL-0030_LatLon0.15_PT240H.grib2 2026-04-11 17:03 75K
20260411T12Z_MSC_GDPS_DewPointDepression_IsbL-0050_LatLon0.15_PT240H.grib2 2026-04-11 17:03 358K
20260411T12Z_MSC_GDPS_DewPointDepression_IsbL-0100_LatLon0.15_PT240H.grib2 2026-04-11 17:03 372K
20260411T12Z_MSC_GDPS_DewPointDepression_IsbL-0150_LatLon0.15_PT240H.grib2 2026-04-11 17:03 461K
20260411T12Z_MSC_GDPS_DewPointDepression_IsbL-0175_LatLon0.15_PT240H.grib2 2026-04-11 17:03 546K
20260411T12Z_MSC_GDPS_DewPointDepression_IsbL-0200_LatLon0.15_PT240H.grib2 2026-04-11 17:03 654K
20260411T12Z_MSC_GDPS_DewPointDepression_IsbL-0225_LatLon0.15_PT240H.grib2 2026-04-11 17:03 785K
20260411T12Z_MSC_GDPS_DewPointDepression_IsbL-0250_LatLon0.15_PT240H.grib2 2026-04-11 17:03 869K
20260411T12Z_MSC_GDPS_DewPointDepression_IsbL-0275_LatLon0.15_PT240H.grib2 2026-04-11 17:03 882K
20260411T12Z_MSC_GDPS_DewPointDepression_IsbL-0300_LatLon0.15_PT240H.grib2 2026-04-11 17:03 926K
20260411T12Z_MSC_GDPS_DewPointDepression_IsbL-0350_LatLon0.15_PT240H.grib2 2026-04-11 17:03 963K
20260411T12Z_MSC_GDPS_DewPointDepression_IsbL-0400_LatLon0.15_PT240H.grib2 2026-04-11 17:03 1.0M
20260411T12Z_MSC_GDPS_DewPointDepression_IsbL-0450_LatLon0.15_PT240H.grib2 2026-04-11 17:03 1.0M
20260411T12Z_MSC_GDPS_DewPointDepression_IsbL-0500_LatLon0.15_PT240H.grib2 2026-04-11 17:03 1.0M
20260411T12Z_MSC_GDPS_DewPointDepression_IsbL-0550_LatLon0.15_PT240H.grib2 2026-04-11 17:03 1.0M
20260411T12Z_MSC_GDPS_DewPointDepression_IsbL-0600_LatLon0.15_PT240H.grib2 2026-04-11 17:03 1.1M
20260411T12Z_MSC_GDPS_DewPointDepression_IsbL-0650_LatLon0.15_PT240H.grib2 2026-04-11 17:03 1.1M
20260411T12Z_MSC_GDPS_DewPointDepression_IsbL-0700_LatLon0.15_PT240H.grib2 2026-04-11 17:03 1.1M
20260411T12Z_MSC_GDPS_DewPointDepression_IsbL-0750_LatLon0.15_PT240H.grib2 2026-04-11 17:03 1.1M
20260411T12Z_MSC_GDPS_DewPointDepression_IsbL-0800_LatLon0.15_PT240H.grib2 2026-04-11 17:03 1.2M
20260411T12Z_MSC_GDPS_DewPointDepression_IsbL-0850_LatLon0.15_PT240H.grib2 2026-04-11 17:03 1.2M
20260411T12Z_MSC_GDPS_DewPointDepression_IsbL-0875_LatLon0.15_PT240H.grib2 2026-04-11 17:03 1.1M
20260411T12Z_MSC_GDPS_DewPointDepression_IsbL-0900_LatLon0.15_PT240H.grib2 2026-04-11 17:03 1.1M
20260411T12Z_MSC_GDPS_DewPointDepression_IsbL-0925_LatLon0.15_PT240H.grib2 2026-04-11 17:03 1.0M
20260411T12Z_MSC_GDPS_DewPointDepression_IsbL-0950_LatLon0.15_PT240H.grib2 2026-04-11 17:03 1.0M
20260411T12Z_MSC_GDPS_DewPointDepression_IsbL-0970_LatLon0.15_PT240H.grib2 2026-04-11 17:03 1.0M
20260411T12Z_MSC_GDPS_DewPointDepression_IsbL-0985_LatLon0.15_PT240H.grib2 2026-04-11 17:03 1.0M
20260411T12Z_MSC_GDPS_DewPointDepression_IsbL-1000_LatLon0.15_PT240H.grib2 2026-04-11 17:03 964K
20260411T12Z_MSC_GDPS_DewPointDepression_IsbL-1015_LatLon0.15_PT240H.grib2 2026-04-11 17:03 901K
20260411T12Z_MSC_GDPS_DewPoint_AGL-2m_LatLon0.15_PT240H.grib2 2026-04-11 17:03 611K
20260411T12Z_MSC_GDPS_DownwardLongwaveRadiationFlux-Accum_Sfc_LatLon0.15_PT240H.grib2 2026-04-11 17:03 741K
20260411T12Z_MSC_GDPS_DownwardShortwaveRadiationFlux-Accum_NTAtm_LatLon0.15_PT240H.grib2 2026-04-11 17:03 266K
20260411T12Z_MSC_GDPS_DownwardShortwaveRadiationFlux-Accum_Sfc_LatLon0.15_PT240H.grib2 2026-04-11 17:03 940K
20260411T12Z_MSC_GDPS_FreezingRain-Accum12h_Sfc_LatLon0.15_PT240H.grib2 2026-04-11 17:03 89K
20260411T12Z_MSC_GDPS_FreezingRain-Accum24h_Sfc_LatLon0.15_PT240H.grib2 2026-04-11 17:03 144K
20260411T12Z_MSC_GDPS_FreezingRain-Accum6h_Sfc_LatLon0.15_PT240H.grib2 2026-04-11 17:03 56K
20260411T12Z_MSC_GDPS_FreezingRain-Accum_Sfc_LatLon0.15_PT240H.grib2 2026-04-11 17:03 352K
20260411T12Z_MSC_GDPS_GeopotentialHeight_IsbL-0001_LatLon0.15_PT240H.grib2 2026-04-11 17:03 384K
20260411T12Z_MSC_GDPS_GeopotentialHeight_IsbL-0005_LatLon0.15_PT240H.grib2 2026-04-11 17:03 490K
20260411T12Z_MSC_GDPS_GeopotentialHeight_IsbL-0010_LatLon0.15_PT240H.grib2 2026-04-11 17:03 427K
20260411T12Z_MSC_GDPS_GeopotentialHeight_IsbL-0020_LatLon0.15_PT240H.grib2 2026-04-11 17:03 575K
20260411T12Z_MSC_GDPS_GeopotentialHeight_IsbL-0030_LatLon0.15_PT240H.grib2 2026-04-11 17:03 583K
20260411T12Z_MSC_GDPS_GeopotentialHeight_IsbL-0050_LatLon0.15_PT240H.grib2 2026-04-11 17:03 580K
20260411T12Z_MSC_GDPS_GeopotentialHeight_IsbL-0100_LatLon0.15_PT240H.grib2 2026-04-11 17:03 616K
20260411T12Z_MSC_GDPS_GeopotentialHeight_IsbL-0150_LatLon0.15_PT240H.grib2 2026-04-11 17:03 633K
20260411T12Z_MSC_GDPS_GeopotentialHeight_IsbL-0175_LatLon0.15_PT240H.grib2 2026-04-11 17:03 636K
20260411T12Z_MSC_GDPS_GeopotentialHeight_IsbL-0200_LatLon0.15_PT240H.grib2 2026-04-11 17:03 642K
20260411T12Z_MSC_GDPS_GeopotentialHeight_IsbL-0225_LatLon0.15_PT240H.grib2 2026-04-11 17:03 638K
20260411T12Z_MSC_GDPS_GeopotentialHeight_IsbL-0250_LatLon0.15_PT240H.grib2 2026-04-11 17:03 644K
20260411T12Z_MSC_GDPS_GeopotentialHeight_IsbL-0275_LatLon0.15_PT240H.grib2 2026-04-11 17:03 646K
20260411T12Z_MSC_GDPS_GeopotentialHeight_IsbL-0300_LatLon0.15_PT240H.grib2 2026-04-11 17:03 646K
20260411T12Z_MSC_GDPS_GeopotentialHeight_IsbL-0350_LatLon0.15_PT240H.grib2 2026-04-11 17:03 635K
20260411T12Z_MSC_GDPS_GeopotentialHeight_IsbL-0400_LatLon0.15_PT240H.grib2 2026-04-11 17:03 628K
20260411T12Z_MSC_GDPS_GeopotentialHeight_IsbL-0450_LatLon0.15_PT240H.grib2 2026-04-11 17:03 548K
20260411T12Z_MSC_GDPS_GeopotentialHeight_IsbL-0500_LatLon0.15_PT240H.grib2 2026-04-11 17:03 538K
20260411T12Z_MSC_GDPS_GeopotentialHeight_IsbL-0550_LatLon0.15_PT240H.grib2 2026-04-11 17:03 530K
20260411T12Z_MSC_GDPS_GeopotentialHeight_IsbL-0600_LatLon0.15_PT240H.grib2 2026-04-11 17:03 691K
20260411T12Z_MSC_GDPS_GeopotentialHeight_IsbL-0650_LatLon0.15_PT240H.grib2 2026-04-11 17:03 690K
20260411T12Z_MSC_GDPS_GeopotentialHeight_IsbL-0700_LatLon0.15_PT240H.grib2 2026-04-11 17:03 691K
20260411T12Z_MSC_GDPS_GeopotentialHeight_IsbL-0750_LatLon0.15_PT240H.grib2 2026-04-11 17:03 690K
20260411T12Z_MSC_GDPS_GeopotentialHeight_IsbL-0800_LatLon0.15_PT240H.grib2 2026-04-11 17:03 704K
20260411T12Z_MSC_GDPS_GeopotentialHeight_IsbL-0850_LatLon0.15_PT240H.grib2 2026-04-11 17:03 710K
20260411T12Z_MSC_GDPS_GeopotentialHeight_IsbL-0875_LatLon0.15_PT240H.grib2 2026-04-11 17:03 715K
20260411T12Z_MSC_GDPS_GeopotentialHeight_IsbL-0900_LatLon0.15_PT240H.grib2 2026-04-11 17:03 725K
20260411T12Z_MSC_GDPS_GeopotentialHeight_IsbL-0925_LatLon0.15_PT240H.grib2 2026-04-11 17:03 734K
20260411T12Z_MSC_GDPS_GeopotentialHeight_IsbL-0950_LatLon0.15_PT240H.grib2 2026-04-11 17:03 741K
20260411T12Z_MSC_GDPS_GeopotentialHeight_IsbL-0970_LatLon0.15_PT240H.grib2 2026-04-11 17:03 751K
20260411T12Z_MSC_GDPS_GeopotentialHeight_IsbL-0985_LatLon0.15_PT240H.grib2 2026-04-11 17:03 767K
20260411T12Z_MSC_GDPS_GeopotentialHeight_IsbL-1000_LatLon0.15_PT240H.grib2 2026-04-11 17:03 789K
20260411T12Z_MSC_GDPS_GeopotentialHeight_IsbL-1015_LatLon0.15_PT240H.grib2 2026-04-11 17:03 807K
20260411T12Z_MSC_GDPS_Humidex_Sfc_LatLon0.15_PT240H.grib2 2026-04-11 17:03 5.3M
20260411T12Z_MSC_GDPS_IcePellets-Accum12h_Sfc_LatLon0.15_PT240H.grib2 2026-04-11 17:03 25K
20260411T12Z_MSC_GDPS_IcePellets-Accum24h_Sfc_LatLon0.15_PT240H.grib2 2026-04-11 17:03 39K
20260411T12Z_MSC_GDPS_IcePellets-Accum6h_Sfc_LatLon0.15_PT240H.grib2 2026-04-11 17:03 18K
20260411T12Z_MSC_GDPS_IcePellets-Accum_Sfc_LatLon0.15_PT240H.grib2 2026-04-11 17:03 239K
20260411T12Z_MSC_GDPS_KIndex_Sfc_LatLon0.15_PT240H.grib2 2026-04-11 17:03 6.5M
20260411T12Z_MSC_GDPS_LatentHeatNetFlux_Sfc_LatLon0.15_PT240H.grib2 2026-04-11 17:03 542K
20260411T12Z_MSC_GDPS_LiftedIndex-MU-VT_IsbL-0500_LatLon0.15_PT240H.grib2 2026-04-11 17:03 5.4M
20260411T12Z_MSC_GDPS_NetLongwaveRadiationFlux-Accum_Sfc_LatLon0.15_PT240H.grib2 2026-04-11 17:03 938K
20260411T12Z_MSC_GDPS_NetShortwaveRadiationFlux-Accum_Sfc_LatLon0.15_PT240H.grib2 2026-04-11 17:03 943K
20260411T12Z_MSC_GDPS_O3MixingRatio_LatLon0.15_PT240H.grib2 2026-04-11 17:07 2.2M
20260411T12Z_MSC_GDPS_O3_EAtm_LatLon0.15_PT240H.grib2 2026-04-11 17:07 2.4M
20260411T12Z_MSC_GDPS_PlanetaryBoundaryLayerHeight_Sfc_LatLon0.15_PT240H.grib2 2026-04-11 17:03 2.5M
20260411T12Z_MSC_GDPS_Precip-Accum12h_Sfc_LatLon0.15_PT240H.grib2 2026-04-11 17:03 3.9M
20260411T12Z_MSC_GDPS_Precip-Accum24h_Sfc_LatLon0.15_PT240H.grib2 2026-04-11 17:03 4.5M
20260411T12Z_MSC_GDPS_Precip-Accum6h_Sfc_LatLon0.15_PT240H.grib2 2026-04-11 17:03 3.5M
20260411T12Z_MSC_GDPS_Precip-Accum_Sfc_LatLon0.15_PT240H.grib2 2026-04-11 17:03 5.1M
20260411T12Z_MSC_GDPS_PrecipRate_Sfc_LatLon0.15_PT240H.grib2 2026-04-11 17:03 2.9M
20260411T12Z_MSC_GDPS_PrecipType-Instant_Sfc_LatLon0.15_PT240H.grib2 2026-04-11 17:03 1.5M
20260411T12Z_MSC_GDPS_Pressure_MSL_LatLon0.15_PT240H.grib2 2026-04-11 17:03 726K
20260411T12Z_MSC_GDPS_Pressure_PVU-1.5_LatLon0.15_PT240H.grib2 2026-04-11 17:03 5.7M
20260411T12Z_MSC_GDPS_Pressure_PVU-1_LatLon0.15_PT240H.grib2 2026-04-11 17:03 5.9M
20260411T12Z_MSC_GDPS_Pressure_PVU-2_LatLon0.15_PT240H.grib2 2026-04-11 17:03 5.6M
20260411T12Z_MSC_GDPS_Pressure_Sfc_LatLon0.15_PT240H.grib2 2026-04-11 17:03 1.1M
20260411T12Z_MSC_GDPS_RadiativeTemp_Sfc_LatLon0.15_PT240H.grib2 2026-04-11 17:03 506K
20260411T12Z_MSC_GDPS_Rain-Accum12h_Sfc_LatLon0.15_PT240H.grib2 2026-04-11 17:03 2.6M
20260411T12Z_MSC_GDPS_Rain-Accum24h_Sfc_LatLon0.15_PT240H.grib2 2026-04-11 17:03 3.1M
20260411T12Z_MSC_GDPS_Rain-Accum6h_Sfc_LatLon0.15_PT240H.grib2 2026-04-11 17:03 2.2M
20260411T12Z_MSC_GDPS_Rain-Accum_Sfc_LatLon0.15_PT240H.grib2 2026-04-11 17:03 4.2M
20260411T12Z_MSC_GDPS_RelativeHumidity_AGL-2m_LatLon0.15_PT240H.grib2 2026-04-11 17:03 1.0M
20260411T12Z_MSC_GDPS_RelativeHumidity_IsbL-0010_LatLon0.15_PT240H.grib2 2026-04-11 17:03 210K
20260411T12Z_MSC_GDPS_RelativeHumidity_IsbL-0020_LatLon0.15_PT240H.grib2 2026-04-11 17:03 346K
20260411T12Z_MSC_GDPS_RelativeHumidity_IsbL-0030_LatLon0.15_PT240H.grib2 2026-04-11 17:03 411K
20260411T12Z_MSC_GDPS_RelativeHumidity_IsbL-0050_LatLon0.15_PT240H.grib2 2026-04-11 17:03 404K
20260411T12Z_MSC_GDPS_RelativeHumidity_IsbL-0100_LatLon0.15_PT240H.grib2 2026-04-11 17:03 467K
20260411T12Z_MSC_GDPS_RelativeHumidity_IsbL-0150_LatLon0.15_PT240H.grib2 2026-04-11 17:03 656K
20260411T12Z_MSC_GDPS_RelativeHumidity_IsbL-0175_LatLon0.15_PT240H.grib2 2026-04-11 17:03 597K
20260411T12Z_MSC_GDPS_RelativeHumidity_IsbL-0200_LatLon0.15_PT240H.grib2 2026-04-11 17:03 705K
20260411T12Z_MSC_GDPS_RelativeHumidity_IsbL-0225_LatLon0.15_PT240H.grib2 2026-04-11 17:03 797K
20260411T12Z_MSC_GDPS_RelativeHumidity_IsbL-0250_LatLon0.15_PT240H.grib2 2026-04-11 17:03 879K
20260411T12Z_MSC_GDPS_RelativeHumidity_IsbL-0275_LatLon0.15_PT240H.grib2 2026-04-11 17:03 894K
20260411T12Z_MSC_GDPS_RelativeHumidity_IsbL-0300_LatLon0.15_PT240H.grib2 2026-04-11 17:03 936K
20260411T12Z_MSC_GDPS_RelativeHumidity_IsbL-0350_LatLon0.15_PT240H.grib2 2026-04-11 17:03 957K
20260411T12Z_MSC_GDPS_RelativeHumidity_IsbL-0400_LatLon0.15_PT240H.grib2 2026-04-11 17:03 1.0M
20260411T12Z_MSC_GDPS_RelativeHumidity_IsbL-0450_LatLon0.15_PT240H.grib2 2026-04-11 17:03 1.0M
20260411T12Z_MSC_GDPS_RelativeHumidity_IsbL-0500_LatLon0.15_PT240H.grib2 2026-04-11 17:03 1.0M
20260411T12Z_MSC_GDPS_RelativeHumidity_IsbL-0550_LatLon0.15_PT240H.grib2 2026-04-11 17:03 1.0M
20260411T12Z_MSC_GDPS_RelativeHumidity_IsbL-0600_LatLon0.15_PT240H.grib2 2026-04-11 17:03 1.1M
20260411T12Z_MSC_GDPS_RelativeHumidity_IsbL-0650_LatLon0.15_PT240H.grib2 2026-04-11 17:03 1.1M
20260411T12Z_MSC_GDPS_RelativeHumidity_IsbL-0700_LatLon0.15_PT240H.grib2 2026-04-11 17:03 1.1M
20260411T12Z_MSC_GDPS_RelativeHumidity_IsbL-0750_LatLon0.15_PT240H.grib2 2026-04-11 17:03 1.1M
20260411T12Z_MSC_GDPS_RelativeHumidity_IsbL-0800_LatLon0.15_PT240H.grib2 2026-04-11 17:03 1.2M
20260411T12Z_MSC_GDPS_RelativeHumidity_IsbL-0850_LatLon0.15_PT240H.grib2 2026-04-11 17:03 1.3M
20260411T12Z_MSC_GDPS_RelativeHumidity_IsbL-0875_LatLon0.15_PT240H.grib2 2026-04-11 17:03 1.2M
20260411T12Z_MSC_GDPS_RelativeHumidity_IsbL-0900_LatLon0.15_PT240H.grib2 2026-04-11 17:03 1.2M
20260411T12Z_MSC_GDPS_RelativeHumidity_IsbL-0925_LatLon0.15_PT240H.grib2 2026-04-11 17:03 1.2M
20260411T12Z_MSC_GDPS_RelativeHumidity_IsbL-0950_LatLon0.15_PT240H.grib2 2026-04-11 17:03 1.2M
20260411T12Z_MSC_GDPS_RelativeHumidity_IsbL-0970_LatLon0.15_PT240H.grib2 2026-04-11 17:03 1.2M
20260411T12Z_MSC_GDPS_RelativeHumidity_IsbL-0985_LatLon0.15_PT240H.grib2 2026-04-11 17:03 1.1M
20260411T12Z_MSC_GDPS_RelativeHumidity_IsbL-1000_LatLon0.15_PT240H.grib2 2026-04-11 17:03 1.1M
20260411T12Z_MSC_GDPS_RelativeHumidity_IsbL-1015_LatLon0.15_PT240H.grib2 2026-04-11 17:03 1.0M
20260411T12Z_MSC_GDPS_RelativeVorticity_IsbL-0200_LatLon0.15_PT240H.grib2 2026-04-11 17:03 1.5M
20260411T12Z_MSC_GDPS_RelativeVorticity_IsbL-0250_LatLon0.15_PT240H.grib2 2026-04-11 17:03 1.3M
20260411T12Z_MSC_GDPS_RelativeVorticity_IsbL-0500_LatLon0.15_PT240H.grib2 2026-04-11 17:03 1.4M
20260411T12Z_MSC_GDPS_RelativeVorticity_IsbL-0700_LatLon0.15_PT240H.grib2 2026-04-11 17:03 1.6M
20260411T12Z_MSC_GDPS_RelativeVorticity_IsbL-0850_LatLon0.15_PT240H.grib2 2026-04-11 17:03 1.6M
20260411T12Z_MSC_GDPS_Runoff-Accum_Sfc_LatLon0.15_PT240H.grib2 2026-04-11 17:03 115K
20260411T12Z_MSC_GDPS_SensibleHeatNetFlux_Sfc_LatLon0.15_PT240H.grib2 2026-04-11 17:03 642K
20260411T12Z_MSC_GDPS_ShowalterIndex_IsbL-0500_LatLon0.15_PT240H.grib2 2026-04-11 17:03 6.2M
20260411T12Z_MSC_GDPS_Snow-Accum12h_Sfc_LatLon0.15_PT240H.grib2 2026-04-11 17:03 1.4M
20260411T12Z_MSC_GDPS_Snow-Accum24h_Sfc_LatLon0.15_PT240H.grib2 2026-04-11 17:03 1.5M
20260411T12Z_MSC_GDPS_Snow-Accum6h_Sfc_LatLon0.15_PT240H.grib2 2026-04-11 17:03 1.3M
20260411T12Z_MSC_GDPS_Snow-Accum_Sfc_LatLon0.15_PT240H.grib2 2026-04-11 17:03 2.0M
20260411T12Z_MSC_GDPS_SnowDensity_Sfc_LatLon0.15_PT240H.grib2 2026-04-11 17:03 269K
20260411T12Z_MSC_GDPS_SnowDepth_Sfc_LatLon0.15_PT240H.grib2 2026-04-11 17:03 1.8M
20260411T12Z_MSC_GDPS_SoilTemp_DBS-0to10cm_LatLon0.15_PT240H.grib2 2026-04-11 17:03 513K
20260411T12Z_MSC_GDPS_SoilTemp_Sfc_LatLon0.15_PT240H.grib2 2026-04-11 17:03 576K
20260411T12Z_MSC_GDPS_SoilVolumetricIceContent_Sfc_LatLon0.15_PT240H.grib2 2026-04-11 17:03 221K
20260411T12Z_MSC_GDPS_SoilVolumetricWaterContent_DBS-0to10cm_LatLon0.15_PT240H.grib2 2026-04-11 17:03 552K
20260411T12Z_MSC_GDPS_SoilVolumetricWaterContent_DBS-0to1cm_LatLon0.15_PT240H.grib2 2026-04-11 17:03 645K
20260411T12Z_MSC_GDPS_SpecificHumidity_AGL-120m_LatLon0.15_PT240H.grib2 2026-04-11 17:03 1.1M
20260411T12Z_MSC_GDPS_SpecificHumidity_AGL-2m_LatLon0.15_PT240H.grib2 2026-04-11 17:03 1.2M
20260411T12Z_MSC_GDPS_SpecificHumidity_AGL-40m_LatLon0.15_PT240H.grib2 2026-04-11 17:03 1.1M
20260411T12Z_MSC_GDPS_SpecificHumidity_AGL-80m_LatLon0.15_PT240H.grib2 2026-04-11 17:03 1.1M
20260411T12Z_MSC_GDPS_SpecificHumidity_IsbL-0001_LatLon0.15_PT240H.grib2 2026-04-11 17:03 1.0M
20260411T12Z_MSC_GDPS_SpecificHumidity_IsbL-0005_LatLon0.15_PT240H.grib2 2026-04-11 17:03 1.2M
20260411T12Z_MSC_GDPS_SpecificHumidity_IsbL-0010_LatLon0.15_PT240H.grib2 2026-04-11 17:03 1.1M
20260411T12Z_MSC_GDPS_SpecificHumidity_IsbL-0020_LatLon0.15_PT240H.grib2 2026-04-11 17:03 1.4M
20260411T12Z_MSC_GDPS_SpecificHumidity_IsbL-0030_LatLon0.15_PT240H.grib2 2026-04-11 17:03 1.4M
20260411T12Z_MSC_GDPS_SpecificHumidity_IsbL-0050_LatLon0.15_PT240H.grib2 2026-04-11 17:03 1.2M
20260411T12Z_MSC_GDPS_SpecificHumidity_IsbL-0100_LatLon0.15_PT240H.grib2 2026-04-11 17:03 1.2M
20260411T12Z_MSC_GDPS_SpecificHumidity_IsbL-0150_LatLon0.15_PT240H.grib2 2026-04-11 17:03 1.2M
20260411T12Z_MSC_GDPS_SpecificHumidity_IsbL-0175_LatLon0.15_PT240H.grib2 2026-04-11 17:03 1.2M
20260411T12Z_MSC_GDPS_SpecificHumidity_IsbL-0200_LatLon0.15_PT240H.grib2 2026-04-11 17:03 1.3M
20260411T12Z_MSC_GDPS_SpecificHumidity_IsbL-0225_LatLon0.15_PT240H.grib2 2026-04-11 17:03 1.3M
20260411T12Z_MSC_GDPS_SpecificHumidity_IsbL-0250_LatLon0.15_PT240H.grib2 2026-04-11 17:03 1.4M
20260411T12Z_MSC_GDPS_SpecificHumidity_IsbL-0275_LatLon0.15_PT240H.grib2 2026-04-11 17:03 1.3M
20260411T12Z_MSC_GDPS_SpecificHumidity_IsbL-0300_LatLon0.15_PT240H.grib2 2026-04-11 17:03 1.2M
20260411T12Z_MSC_GDPS_SpecificHumidity_IsbL-0350_LatLon0.15_PT240H.grib2 2026-04-11 17:03 1.5M
20260411T12Z_MSC_GDPS_SpecificHumidity_IsbL-0400_LatLon0.15_PT240H.grib2 2026-04-11 17:03 1.5M
20260411T12Z_MSC_GDPS_SpecificHumidity_IsbL-0450_LatLon0.15_PT240H.grib2 2026-04-11 17:03 1.6M
20260411T12Z_MSC_GDPS_SpecificHumidity_IsbL-0500_LatLon0.15_PT240H.grib2 2026-04-11 17:03 1.4M
20260411T12Z_MSC_GDPS_SpecificHumidity_IsbL-0550_LatLon0.15_PT240H.grib2 2026-04-11 17:03 1.6M
20260411T12Z_MSC_GDPS_SpecificHumidity_IsbL-0600_LatLon0.15_PT240H.grib2 2026-04-11 17:03 1.8M
20260411T12Z_MSC_GDPS_SpecificHumidity_IsbL-0650_LatLon0.15_PT240H.grib2 2026-04-11 17:03 1.5M
20260411T12Z_MSC_GDPS_SpecificHumidity_IsbL-0700_LatLon0.15_PT240H.grib2 2026-04-11 17:03 1.6M
20260411T12Z_MSC_GDPS_SpecificHumidity_IsbL-0750_LatLon0.15_PT240H.grib2 2026-04-11 17:03 1.7M
20260411T12Z_MSC_GDPS_SpecificHumidity_IsbL-0800_LatLon0.15_PT240H.grib2 2026-04-11 17:03 1.8M
20260411T12Z_MSC_GDPS_SpecificHumidity_IsbL-0850_LatLon0.15_PT240H.grib2 2026-04-11 17:03 1.9M
20260411T12Z_MSC_GDPS_SpecificHumidity_IsbL-0875_LatLon0.15_PT240H.grib2 2026-04-11 17:03 1.9M
20260411T12Z_MSC_GDPS_SpecificHumidity_IsbL-0900_LatLon0.15_PT240H.grib2 2026-04-11 17:03 1.6M
20260411T12Z_MSC_GDPS_SpecificHumidity_IsbL-0925_LatLon0.15_PT240H.grib2 2026-04-11 17:03 1.6M
20260411T12Z_MSC_GDPS_SpecificHumidity_IsbL-0950_LatLon0.15_PT240H.grib2 2026-04-11 17:03 1.5M
20260411T12Z_MSC_GDPS_SpecificHumidity_IsbL-0970_LatLon0.15_PT240H.grib2 2026-04-11 17:03 1.5M
20260411T12Z_MSC_GDPS_SpecificHumidity_IsbL-0985_LatLon0.15_PT240H.grib2 2026-04-11 17:03 1.5M
20260411T12Z_MSC_GDPS_SpecificHumidity_IsbL-1000_LatLon0.15_PT240H.grib2 2026-04-11 17:03 1.5M
20260411T12Z_MSC_GDPS_SpecificHumidity_IsbL-1015_LatLon0.15_PT240H.grib2 2026-04-11 17:03 1.4M
20260411T12Z_MSC_GDPS_SpecificHumidity_Sfc_LatLon0.15_PT240H.grib2 2026-04-11 17:03 668K
20260411T12Z_MSC_GDPS_Thickness_IsbL-0850to0700_LatLon0.15_PT240H.grib2 2026-04-11 17:03 470K
20260411T12Z_MSC_GDPS_Thickness_IsbL-1000to0500_LatLon0.15_PT240H.grib2 2026-04-11 17:03 381K
20260411T12Z_MSC_GDPS_Thickness_IsbL-1000to0850_LatLon0.15_PT240H.grib2 2026-04-11 17:03 490K
20260411T12Z_MSC_GDPS_TotalCloudCover_Sfc_LatLon0.15_PT240H.grib2 2026-04-11 17:03 820K
20260411T12Z_MSC_GDPS_TotalTotalsIndex_Sfc_LatLon0.15_PT240H.grib2 2026-04-11 17:03 6.2M
20260411T12Z_MSC_GDPS_UVIndex-ClearSky_Sfc_LatLon0.15_PT240H.grib2 2026-04-11 17:07 1.0M
20260411T12Z_MSC_GDPS_UVIndex_Sfc_LatLon0.15_PT240H.grib2 2026-04-11 17:07 1.4M
20260411T12Z_MSC_GDPS_UpwardLongwaveRadiationFlux_NTAtm_LatLon0.15_PT240H.grib2 2026-04-11 17:03 837K
20260411T12Z_MSC_GDPS_VerticalVelocity_IsbL-0200_LatLon0.15_PT240H.grib2 2026-04-11 17:03 1.2M
20260411T12Z_MSC_GDPS_VerticalVelocity_IsbL-0250_LatLon0.15_PT240H.grib2 2026-04-11 17:03 1.0M
20260411T12Z_MSC_GDPS_VerticalVelocity_IsbL-0500_LatLon0.15_PT240H.grib2 2026-04-11 17:03 1.0M
20260411T12Z_MSC_GDPS_VerticalVelocity_IsbL-0600_LatLon0.15_PT240H.grib2 2026-04-11 17:03 1.1M
20260411T12Z_MSC_GDPS_VerticalVelocity_IsbL-0700_LatLon0.15_PT240H.grib2 2026-04-11 17:03 1.1M
20260411T12Z_MSC_GDPS_VerticalVelocity_IsbL-0850_LatLon0.15_PT240H.grib2 2026-04-11 17:03 1.3M
20260411T12Z_MSC_GDPS_WindChill_Sfc_LatLon0.15_PT240H.grib2 2026-04-11 17:03 5.3M
20260411T12Z_MSC_GDPS_WindDir_AGL-10m_LatLon0.15_PT240H.grib2 2026-04-11 17:03 1.3M
20260411T12Z_MSC_GDPS_WindDir_AGL-120m_LatLon0.15_PT240H.grib2 2026-04-11 17:03 1.3M
20260411T12Z_MSC_GDPS_WindDir_AGL-40m_LatLon0.15_PT240H.grib2 2026-04-11 17:03 1.4M
20260411T12Z_MSC_GDPS_WindDir_AGL-80m_LatLon0.15_PT240H.grib2 2026-04-11 17:03 1.4M
20260411T12Z_MSC_GDPS_WindDir_IsbL-0001_LatLon0.15_PT240H.grib2 2026-04-11 17:03 637K
20260411T12Z_MSC_GDPS_WindDir_IsbL-0005_LatLon0.15_PT240H.grib2 2026-04-11 17:03 795K
20260411T12Z_MSC_GDPS_WindDir_IsbL-0010_LatLon0.15_PT240H.grib2 2026-04-11 17:03 847K
20260411T12Z_MSC_GDPS_WindDir_IsbL-0020_LatLon0.15_PT240H.grib2 2026-04-11 17:03 930K
20260411T12Z_MSC_GDPS_WindDir_IsbL-0030_LatLon0.15_PT240H.grib2 2026-04-11 17:03 896K
20260411T12Z_MSC_GDPS_WindDir_IsbL-0050_LatLon0.15_PT240H.grib2 2026-04-11 17:03 925K
20260411T12Z_MSC_GDPS_WindDir_IsbL-0100_LatLon0.15_PT240H.grib2 2026-04-11 17:03 1.0M
20260411T12Z_MSC_GDPS_WindDir_IsbL-0150_LatLon0.15_PT240H.grib2 2026-04-11 17:03 1.0M
20260411T12Z_MSC_GDPS_WindDir_IsbL-0175_LatLon0.15_PT240H.grib2 2026-04-11 17:03 1.0M
20260411T12Z_MSC_GDPS_WindDir_IsbL-0200_LatLon0.15_PT240H.grib2 2026-04-11 17:03 1.1M
20260411T12Z_MSC_GDPS_WindDir_IsbL-0225_LatLon0.15_PT240H.grib2 2026-04-11 17:03 1.1M
20260411T12Z_MSC_GDPS_WindDir_IsbL-0250_LatLon0.15_PT240H.grib2 2026-04-11 17:03 1.1M
20260411T12Z_MSC_GDPS_WindDir_IsbL-0275_LatLon0.15_PT240H.grib2 2026-04-11 17:03 1.2M
20260411T12Z_MSC_GDPS_WindDir_IsbL-0300_LatLon0.15_PT240H.grib2 2026-04-11 17:03 1.2M
20260411T12Z_MSC_GDPS_WindDir_IsbL-0350_LatLon0.15_PT240H.grib2 2026-04-11 17:03 1.2M
20260411T12Z_MSC_GDPS_WindDir_IsbL-0400_LatLon0.15_PT240H.grib2 2026-04-11 17:03 1.3M
20260411T12Z_MSC_GDPS_WindDir_IsbL-0450_LatLon0.15_PT240H.grib2 2026-04-11 17:03 1.3M
20260411T12Z_MSC_GDPS_WindDir_IsbL-0500_LatLon0.15_PT240H.grib2 2026-04-11 17:03 1.3M
20260411T12Z_MSC_GDPS_WindDir_IsbL-0550_LatLon0.15_PT240H.grib2 2026-04-11 17:03 1.4M
20260411T12Z_MSC_GDPS_WindDir_IsbL-0600_LatLon0.15_PT240H.grib2 2026-04-11 17:03 1.5M
20260411T12Z_MSC_GDPS_WindDir_IsbL-0650_LatLon0.15_PT240H.grib2 2026-04-11 17:03 1.5M
20260411T12Z_MSC_GDPS_WindDir_IsbL-0700_LatLon0.15_PT240H.grib2 2026-04-11 17:03 1.6M
20260411T12Z_MSC_GDPS_WindDir_IsbL-0750_LatLon0.15_PT240H.grib2 2026-04-11 17:03 1.7M
20260411T12Z_MSC_GDPS_WindDir_IsbL-0800_LatLon0.15_PT240H.grib2 2026-04-11 17:03 1.8M
20260411T12Z_MSC_GDPS_WindDir_IsbL-0850_LatLon0.15_PT240H.grib2 2026-04-11 17:03 1.9M
20260411T12Z_MSC_GDPS_WindDir_IsbL-0875_LatLon0.15_PT240H.grib2 2026-04-11 17:03 2.0M
20260411T12Z_MSC_GDPS_WindDir_IsbL-0900_LatLon0.15_PT240H.grib2 2026-04-11 17:03 2.0M
20260411T12Z_MSC_GDPS_WindDir_IsbL-0925_LatLon0.15_PT240H.grib2 2026-04-11 17:03 2.0M
20260411T12Z_MSC_GDPS_WindDir_IsbL-0950_LatLon0.15_PT240H.grib2 2026-04-11 17:03 2.0M
20260411T12Z_MSC_GDPS_WindDir_IsbL-0970_LatLon0.15_PT240H.grib2 2026-04-11 17:03 2.0M
20260411T12Z_MSC_GDPS_WindDir_IsbL-0985_LatLon0.15_PT240H.grib2 2026-04-11 17:03 2.0M
20260411T12Z_MSC_GDPS_WindDir_IsbL-1000_LatLon0.15_PT240H.grib2 2026-04-11 17:03 2.0M
20260411T12Z_MSC_GDPS_WindDir_IsbL-1015_LatLon0.15_PT240H.grib2 2026-04-11 17:03 2.0M
20260411T12Z_MSC_GDPS_WindGust-Max_AGL-10m_LatLon0.15_PT240H.grib2 2026-04-11 17:03 2.2M
20260411T12Z_MSC_GDPS_WindGust-Min_AGL-10m_LatLon0.15_PT240H.grib2 2026-04-11 17:03 2.2M
20260411T12Z_MSC_GDPS_WindGust_AGL-10m_LatLon0.15_PT240H.grib2 2026-04-11 17:03 2.2M
20260411T12Z_MSC_GDPS_WindSpeed_AGL-10m_LatLon0.15_PT240H.grib2 2026-04-11 17:03 1.1M
20260411T12Z_MSC_GDPS_WindSpeed_AGL-120m_LatLon0.15_PT240H.grib2 2026-04-11 17:03 1.2M
20260411T12Z_MSC_GDPS_WindSpeed_AGL-40m_LatLon0.15_PT240H.grib2 2026-04-11 17:03 1.2M
20260411T12Z_MSC_GDPS_WindSpeed_AGL-80m_LatLon0.15_PT240H.grib2 2026-04-11 17:03 1.2M
20260411T12Z_MSC_GDPS_WindSpeed_IsbL-0001_LatLon0.15_PT240H.grib2 2026-04-11 17:03 634K
20260411T12Z_MSC_GDPS_WindSpeed_IsbL-0005_LatLon0.15_PT240H.grib2 2026-04-11 17:03 604K
20260411T12Z_MSC_GDPS_WindSpeed_IsbL-0010_LatLon0.15_PT240H.grib2 2026-04-11 17:03 621K
20260411T12Z_MSC_GDPS_WindSpeed_IsbL-0020_LatLon0.15_PT240H.grib2 2026-04-11 17:03 852K
20260411T12Z_MSC_GDPS_WindSpeed_IsbL-0030_LatLon0.15_PT240H.grib2 2026-04-11 17:03 928K
20260411T12Z_MSC_GDPS_WindSpeed_IsbL-0050_LatLon0.15_PT240H.grib2 2026-04-11 17:03 1.0M
20260411T12Z_MSC_GDPS_WindSpeed_IsbL-0100_LatLon0.15_PT240H.grib2 2026-04-11 17:03 1.1M
20260411T12Z_MSC_GDPS_WindSpeed_IsbL-0150_LatLon0.15_PT240H.grib2 2026-04-11 17:03 936K
20260411T12Z_MSC_GDPS_WindSpeed_IsbL-0175_LatLon0.15_PT240H.grib2 2026-04-11 17:03 1.0M
20260411T12Z_MSC_GDPS_WindSpeed_IsbL-0200_LatLon0.15_PT240H.grib2 2026-04-11 17:03 1.1M
20260411T12Z_MSC_GDPS_WindSpeed_IsbL-0225_LatLon0.15_PT240H.grib2 2026-04-11 17:03 1.1M
20260411T12Z_MSC_GDPS_WindSpeed_IsbL-0250_LatLon0.15_PT240H.grib2 2026-04-11 17:03 1.1M
20260411T12Z_MSC_GDPS_WindSpeed_IsbL-0275_LatLon0.15_PT240H.grib2 2026-04-11 17:03 1.1M
20260411T12Z_MSC_GDPS_WindSpeed_IsbL-0300_LatLon0.15_PT240H.grib2 2026-04-11 17:03 1.1M
20260411T12Z_MSC_GDPS_WindSpeed_IsbL-0350_LatLon0.15_PT240H.grib2 2026-04-11 17:03 1.1M
20260411T12Z_MSC_GDPS_WindSpeed_IsbL-0400_LatLon0.15_PT240H.grib2 2026-04-11 17:03 1.1M
20260411T12Z_MSC_GDPS_WindSpeed_IsbL-0450_LatLon0.15_PT240H.grib2 2026-04-11 17:03 1.1M
20260411T12Z_MSC_GDPS_WindSpeed_IsbL-0500_LatLon0.15_PT240H.grib2 2026-04-11 17:03 1.1M
20260411T12Z_MSC_GDPS_WindSpeed_IsbL-0550_LatLon0.15_PT240H.grib2 2026-04-11 17:03 1.1M
20260411T12Z_MSC_GDPS_WindSpeed_IsbL-0600_LatLon0.15_PT240H.grib2 2026-04-11 17:03 1.1M
20260411T12Z_MSC_GDPS_WindSpeed_IsbL-0650_LatLon0.15_PT240H.grib2 2026-04-11 17:03 1.4M
20260411T12Z_MSC_GDPS_WindSpeed_IsbL-0700_LatLon0.15_PT240H.grib2 2026-04-11 17:03 1.5M
20260411T12Z_MSC_GDPS_WindSpeed_IsbL-0750_LatLon0.15_PT240H.grib2 2026-04-11 17:03 1.5M
20260411T12Z_MSC_GDPS_WindSpeed_IsbL-0800_LatLon0.15_PT240H.grib2 2026-04-11 17:03 1.6M
20260411T12Z_MSC_GDPS_WindSpeed_IsbL-0850_LatLon0.15_PT240H.grib2 2026-04-11 17:03 1.7M
20260411T12Z_MSC_GDPS_WindSpeed_IsbL-0875_LatLon0.15_PT240H.grib2 2026-04-11 17:03 1.8M
20260411T12Z_MSC_GDPS_WindSpeed_IsbL-0900_LatLon0.15_PT240H.grib2 2026-04-11 17:03 1.9M
20260411T12Z_MSC_GDPS_WindSpeed_IsbL-0925_LatLon0.15_PT240H.grib2 2026-04-11 17:03 1.9M
20260411T12Z_MSC_GDPS_WindSpeed_IsbL-0950_LatLon0.15_PT240H.grib2 2026-04-11 17:03 1.9M
20260411T12Z_MSC_GDPS_WindSpeed_IsbL-0970_LatLon0.15_PT240H.grib2 2026-04-11 17:03 1.8M
20260411T12Z_MSC_GDPS_WindSpeed_IsbL-0985_LatLon0.15_PT240H.grib2 2026-04-11 17:03 1.8M
20260411T12Z_MSC_GDPS_WindSpeed_IsbL-1000_LatLon0.15_PT240H.grib2 2026-04-11 17:03 1.8M
20260411T12Z_MSC_GDPS_WindSpeed_IsbL-1015_LatLon0.15_PT240H.grib2 2026-04-11 17:03 1.8M
20260411T12Z_MSC_GDPS_WindU_AGL-10m_LatLon0.15_PT240H.grib2 2026-04-11 17:03 1.3M
20260411T12Z_MSC_GDPS_WindU_AGL-120m_LatLon0.15_PT240H.grib2 2026-04-11 17:03 965K
20260411T12Z_MSC_GDPS_WindU_AGL-40m_LatLon0.15_PT240H.grib2 2026-04-11 17:03 962K
20260411T12Z_MSC_GDPS_WindU_AGL-80m_LatLon0.15_PT240H.grib2 2026-04-11 17:03 966K
20260411T12Z_MSC_GDPS_WindU_IsbL-0001_LatLon0.15_PT240H.grib2 2026-04-11 17:03 638K
20260411T12Z_MSC_GDPS_WindU_IsbL-0005_LatLon0.15_PT240H.grib2 2026-04-11 17:03 681K
20260411T12Z_MSC_GDPS_WindU_IsbL-0010_LatLon0.15_PT240H.grib2 2026-04-11 17:03 696K
20260411T12Z_MSC_GDPS_WindU_IsbL-0020_LatLon0.15_PT240H.grib2 2026-04-11 17:03 651K
20260411T12Z_MSC_GDPS_WindU_IsbL-0030_LatLon0.15_PT240H.grib2 2026-04-11 17:03 731K
20260411T12Z_MSC_GDPS_WindU_IsbL-0050_LatLon0.15_PT240H.grib2 2026-04-11 17:03 694K
20260411T12Z_MSC_GDPS_WindU_IsbL-0100_LatLon0.15_PT240H.grib2 2026-04-11 17:03 854K
20260411T12Z_MSC_GDPS_WindU_IsbL-0150_LatLon0.15_PT240H.grib2 2026-04-11 17:03 1.0M
20260411T12Z_MSC_GDPS_WindU_IsbL-0175_LatLon0.15_PT240H.grib2 2026-04-11 17:03 1.0M
20260411T12Z_MSC_GDPS_WindU_IsbL-0200_LatLon0.15_PT240H.grib2 2026-04-11 17:03 1.0M
20260411T12Z_MSC_GDPS_WindU_IsbL-0225_LatLon0.15_PT240H.grib2 2026-04-11 17:03 851K
20260411T12Z_MSC_GDPS_WindU_IsbL-0250_LatLon0.15_PT240H.grib2 2026-04-11 17:03 852K
20260411T12Z_MSC_GDPS_WindU_IsbL-0275_LatLon0.15_PT240H.grib2 2026-04-11 17:03 1.1M
20260411T12Z_MSC_GDPS_WindU_IsbL-0300_LatLon0.15_PT240H.grib2 2026-04-11 17:03 871K
20260411T12Z_MSC_GDPS_WindU_IsbL-0350_LatLon0.15_PT240H.grib2 2026-04-11 17:03 886K
20260411T12Z_MSC_GDPS_WindU_IsbL-0400_LatLon0.15_PT240H.grib2 2026-04-11 17:03 887K
20260411T12Z_MSC_GDPS_WindU_IsbL-0450_LatLon0.15_PT240H.grib2 2026-04-11 17:03 1.1M
20260411T12Z_MSC_GDPS_WindU_IsbL-0500_LatLon0.15_PT240H.grib2 2026-04-11 17:03 1.1M
20260411T12Z_MSC_GDPS_WindU_IsbL-0550_LatLon0.15_PT240H.grib2 2026-04-11 17:03 1.1M
20260411T12Z_MSC_GDPS_WindU_IsbL-0600_LatLon0.15_PT240H.grib2 2026-04-11 17:03 1.1M
20260411T12Z_MSC_GDPS_WindU_IsbL-0650_LatLon0.15_PT240H.grib2 2026-04-11 17:03 1.2M
20260411T12Z_MSC_GDPS_WindU_IsbL-0700_LatLon0.15_PT240H.grib2 2026-04-11 17:03 1.2M
20260411T12Z_MSC_GDPS_WindU_IsbL-0750_LatLon0.15_PT240H.grib2 2026-04-11 17:03 1.3M
20260411T12Z_MSC_GDPS_WindU_IsbL-0800_LatLon0.15_PT240H.grib2 2026-04-11 17:03 1.3M
20260411T12Z_MSC_GDPS_WindU_IsbL-0850_LatLon0.15_PT240H.grib2 2026-04-11 17:03 1.4M
20260411T12Z_MSC_GDPS_WindU_IsbL-0875_LatLon0.15_PT240H.grib2 2026-04-11 17:03 1.4M
20260411T12Z_MSC_GDPS_WindU_IsbL-0900_LatLon0.15_PT240H.grib2 2026-04-11 17:03 1.4M
20260411T12Z_MSC_GDPS_WindU_IsbL-0925_LatLon0.15_PT240H.grib2 2026-04-11 17:03 1.4M
20260411T12Z_MSC_GDPS_WindU_IsbL-0950_LatLon0.15_PT240H.grib2 2026-04-11 17:03 1.4M
20260411T12Z_MSC_GDPS_WindU_IsbL-0970_LatLon0.15_PT240H.grib2 2026-04-11 17:03 1.4M
20260411T12Z_MSC_GDPS_WindU_IsbL-0985_LatLon0.15_PT240H.grib2 2026-04-11 17:03 1.4M
20260411T12Z_MSC_GDPS_WindU_IsbL-1000_LatLon0.15_PT240H.grib2 2026-04-11 17:03 1.4M
20260411T12Z_MSC_GDPS_WindU_IsbL-1015_LatLon0.15_PT240H.grib2 2026-04-11 17:03 1.3M
20260411T12Z_MSC_GDPS_WindV_AGL-10m_LatLon0.15_PT240H.grib2 2026-04-11 17:03 1.3M
20260411T12Z_MSC_GDPS_WindV_AGL-120m_LatLon0.15_PT240H.grib2 2026-04-11 17:03 968K
20260411T12Z_MSC_GDPS_WindV_AGL-40m_LatLon0.15_PT240H.grib2 2026-04-11 17:03 964K
20260411T12Z_MSC_GDPS_WindV_AGL-80m_LatLon0.15_PT240H.grib2 2026-04-11 17:03 969K
20260411T12Z_MSC_GDPS_WindV_IsbL-0001_LatLon0.15_PT240H.grib2 2026-04-11 17:03 691K
20260411T12Z_MSC_GDPS_WindV_IsbL-0005_LatLon0.15_PT240H.grib2 2026-04-11 17:03 843K
20260411T12Z_MSC_GDPS_WindV_IsbL-0010_LatLon0.15_PT240H.grib2 2026-04-11 17:03 874K
20260411T12Z_MSC_GDPS_WindV_IsbL-0020_LatLon0.15_PT240H.grib2 2026-04-11 17:03 929K
20260411T12Z_MSC_GDPS_WindV_IsbL-0030_LatLon0.15_PT240H.grib2 2026-04-11 17:03 928K
20260411T12Z_MSC_GDPS_WindV_IsbL-0050_LatLon0.15_PT240H.grib2 2026-04-11 17:03 1.0M
20260411T12Z_MSC_GDPS_WindV_IsbL-0100_LatLon0.15_PT240H.grib2 2026-04-11 17:03 1.0M
20260411T12Z_MSC_GDPS_WindV_IsbL-0150_LatLon0.15_PT240H.grib2 2026-04-11 17:03 1.0M
20260411T12Z_MSC_GDPS_WindV_IsbL-0175_LatLon0.15_PT240H.grib2 2026-04-11 17:03 1.0M
20260411T12Z_MSC_GDPS_WindV_IsbL-0200_LatLon0.15_PT240H.grib2 2026-04-11 17:03 1.0M
20260411T12Z_MSC_GDPS_WindV_IsbL-0225_LatLon0.15_PT240H.grib2 2026-04-11 17:03 847K
20260411T12Z_MSC_GDPS_WindV_IsbL-0250_LatLon0.15_PT240H.grib2 2026-04-11 17:03 908K
20260411T12Z_MSC_GDPS_WindV_IsbL-0275_LatLon0.15_PT240H.grib2 2026-04-11 17:03 933K
20260411T12Z_MSC_GDPS_WindV_IsbL-0300_LatLon0.15_PT240H.grib2 2026-04-11 17:03 924K
20260411T12Z_MSC_GDPS_WindV_IsbL-0350_LatLon0.15_PT240H.grib2 2026-04-11 17:03 878K
20260411T12Z_MSC_GDPS_WindV_IsbL-0400_LatLon0.15_PT240H.grib2 2026-04-11 17:03 880K
20260411T12Z_MSC_GDPS_WindV_IsbL-0450_LatLon0.15_PT240H.grib2 2026-04-11 17:03 880K
20260411T12Z_MSC_GDPS_WindV_IsbL-0500_LatLon0.15_PT240H.grib2 2026-04-11 17:03 1.1M
20260411T12Z_MSC_GDPS_WindV_IsbL-0550_LatLon0.15_PT240H.grib2 2026-04-11 17:03 1.1M
20260411T12Z_MSC_GDPS_WindV_IsbL-0600_LatLon0.15_PT240H.grib2 2026-04-11 17:03 1.1M
20260411T12Z_MSC_GDPS_WindV_IsbL-0650_LatLon0.15_PT240H.grib2 2026-04-11 17:03 1.2M
20260411T12Z_MSC_GDPS_WindV_IsbL-0700_LatLon0.15_PT240H.grib2 2026-04-11 17:03 1.2M
20260411T12Z_MSC_GDPS_WindV_IsbL-0750_LatLon0.15_PT240H.grib2 2026-04-11 17:03 1.3M
20260411T12Z_MSC_GDPS_WindV_IsbL-0800_LatLon0.15_PT240H.grib2 2026-04-11 17:03 1.3M
20260411T12Z_MSC_GDPS_WindV_IsbL-0850_LatLon0.15_PT240H.grib2 2026-04-11 17:03 1.4M
20260411T12Z_MSC_GDPS_WindV_IsbL-0875_LatLon0.15_PT240H.grib2 2026-04-11 17:03 1.4M
20260411T12Z_MSC_GDPS_WindV_IsbL-0900_LatLon0.15_PT240H.grib2 2026-04-11 17:03 1.4M
20260411T12Z_MSC_GDPS_WindV_IsbL-0925_LatLon0.15_PT240H.grib2 2026-04-11 17:03 1.4M
20260411T12Z_MSC_GDPS_WindV_IsbL-0950_LatLon0.15_PT240H.grib2 2026-04-11 17:03 1.4M
20260411T12Z_MSC_GDPS_WindV_IsbL-0970_LatLon0.15_PT240H.grib2 2026-04-11 17:03 1.4M
20260411T12Z_MSC_GDPS_WindV_IsbL-0985_LatLon0.15_PT240H.grib2 2026-04-11 17:03 1.4M
20260411T12Z_MSC_GDPS_WindV_IsbL-1000_LatLon0.15_PT240H.grib2 2026-04-11 17:03 1.4M
20260411T12Z_MSC_GDPS_WindV_IsbL-1015_LatLon0.15_PT240H.grib2 2026-04-11 17:03 1.3M